Showing default

IRIDIUM 175, 43928

Orbit data source: Space-Track

IRIDIUM 175, 43928 is a payload satellite owned by Iridium (US) in LEO that was launched on Fri, 11 Jan 2019 UTC via an FALCON 9 launch vehicle from the Air Force Western Test Range (AFWTR). Payloads include a variety of satellites, spacecraft, and rockets equipped with specific instruments for various scientific and technological missions. These include communications satellites like Starlink; space stations such as the ISS; scientific satellites like the Hubble; Earth observation satellites from companies like Planet Labs, Umbra, and HawkEye 360; GPS; miniature CubeSats for education and research; and military/defense satellites.

Loading next visibility...
IRIDIUM 175 details
Identifier
43928, 2019-002G
Orbit
LEO
Last TLE update9 hours ago
Origin
Flag of USIridium (US)
ManufacturerNGIS SSG Gilbert
MissionOperational Commercial Communications
Bus & MotorELITEBUS, Unknown motor
Mass860 kg wet, 700 kg dry
Launch date (UTC)
2019-01-11 (6 years ago)
Launch vehicle
FALCON 9
Launch site
Air Force Western Test Range (AFWTR)
Object type
Payload
Rocket body
Debris
Shape & HBRTrap Box + 2 Pan, 9.4 m
Radar Cross Section14.423 m², Large (>1 m²)

Expand to show TLE details & history

TLE from 9 hours ago
0 IRIDIUM 175
1 43928U 19002G   24361.25725313  .00000982  00000-0  15181-3 0  9990
2 43928  86.1522 180.7161 0000856 127.1231 233.0064 14.72248841320095
Epoch: 2024-12-26T06:10Z
Definitive object data (Epoch: 2024-12-26T06:10:26.67Z)
Latitude-0.00001°
Longitude-7.13427°
Altitude657.362 km
Speed7.528 km/s
True Right ascension12h 02m 51s
True Declination0° 00' 00"
Sunlit
Object was in daylight at TLE epoch
Visualization TLE readout
Latitude72.94533°
Longitude160.09994°
Altitude665.957 km
Speed7.531 km/s
Apparent Right ascension01h 19m 08s
Apparent Declination22° 00' 23"
Sunlit
Object is in daylight
Visualization observer readout
Local Sidereal Time14:10:41
Azimuth13.411° NNE
Elevation-26.92°
Doppler factor1
Orbital elements
Apogee altitude651.416 km
Perigee altitude650.213 km
Semi-major axis7,028.951 km
Eccentricity0.0000856
Inclination86.1522°
RAAN180.7161°
Arg. of periapsis127.1231°
True anomaly232.99857°
Mean anomaly233.0064°
Eccentric anomaly233.00248°
Mean motion3.68305 °/min
BSTAR0.00015181
Orbital period97.75 mins
Loading maneuver chart data...
Loading historical data...
Loading historical data...
Loading historical data...
Loading historical data...
Loading historical data...
Loading historical data...
Loading historical data...

IRIDIUM 175 Visibility forecast

Observer location: undefined°, undefined

Span
Click to sort rows by Start time (UTC) header in descending order
Start Az.
Max El. time (UTC)
Max El. Az.
Max El.
End time (UTC)
End Az.
7 mins2024-12-27 00:41:47.082Z343.258° N2024-12-27 00:44:47.082Z286.829° WNW38.397°2024-12-27 00:48:47.082Z197.219° SSW
4 mins2024-12-27 11:41:47.082Z104.424° ESE2024-12-27 11:42:47.082Z88.632° E16.918°2024-12-27 11:45:47.082Z43.958° NE
6 mins2024-12-27 13:18:47.082Z224.571° SW2024-12-27 13:20:47.082Z269.31° W31.553°2024-12-27 13:24:47.082Z343.689° N
|